This is the latest recevied weather packets stored in our database for station/object VA6GSB-13. If no packets are shown the sender has not sent any weather packets the latest 10 day(s).
| Time | Temp. | Humidity | Pressure | Rain* | Wind** | Luminosity | Snow |
|---|---|---|---|---|---|---|---|
| 1787429363 | 21.67° C | 72% | 1014.3 hPa | 0 mm | - | 91 W/m² | - |
| 1787429063 | 21.67° C | 72% | 1014.2 hPa | 0 mm | - | 95 W/m² | - |
| 1787428764 | 21.67° C | 71% | 1014.3 hPa | 0 mm | - | 105 W/m² | - |
| 1787428463 | 21.67° C | 69% | 1014.3 hPa | 0 mm | - | 112 W/m² | - |
| 1787428163 | 22.22° C | 69% | 1014.3 hPa | 0 mm | - | 119 W/m² | - |
| 1787427939 | 22.22° C | 69% | 1014 hPa | 0 mm | - | 130 W/m² | - |
| 1787427863 | 22.22° C | 69% | 1014.4 hPa | 0 mm | - | 133 W/m² | - |
| 1787427639 | 22.22° C | 68% | 1014 hPa | 0 mm | - | 146 W/m² | - |
| 1787427563 | 22.22° C | 67% | 1014.4 hPa | 0 mm | - | 149 W/m² | - |
| 1787427339 | 22.22° C | 67% | 1015 hPa | 0 mm | - | 156 W/m² | - |
| 1787427039 | 22.22° C | 66% | 1015 hPa | 0 mm | - | 176 W/m² | - |
| 1787426739 | 22.22° C | 66% | 1015 hPa | 0 mm | - | 200 W/m² | - |
| 1787426440 | 22.22° C | 67% | 1015 hPa | 0 mm | - | 216 W/m² | - |
| 1787426064 | 22.22° C | 66% | 1014.8 hPa | 0 mm | - | 199 W/m² | - |
| 1787425840 | 22.22° C | 65% | 1015 hPa | 0 mm | - | 196 W/m² | - |
| 1787425764 | 22.22° C | 66% | 1014.9 hPa | 0 mm | - | 196 W/m² | - |
| 1787425540 | 22.22° C | 66% | 1015 hPa | 0 mm | - | 201 W/m² | - |
| 1787425464 | 22.22° C | 65% | 1014.9 hPa | 0 mm | - | 203 W/m² | - |
| 1787425241 | 22.22° C | 65% | 1015 hPa | 0 mm | - | 214 W/m² | - |
| 1787425164 | 22.22° C | 66% | 1015 hPa | 0 mm | - | 217 W/m² | - |
| 1787424863 | 22.22° C | 66% | 1015.1 hPa | 0 mm | - | 232 W/m² | - |
| 1787424563 | 22.22° C | 67% | 1015.1 hPa | 0 mm | - | 241 W/m² | - |
| 1787424263 | 22.22° C | 67% | 1015.1 hPa | 0 mm | - | 231 W/m² | - |
| 1787423964 | 21.67° C | 66% | 1015 hPa | 0 mm | - | 219 W/m² | - |
| 1787423664 | 21.67° C | 65% | 1015 hPa | 0 mm | - | 200 W/m² | - |
* Rain latest hour (hover to see other rain measurements)
** Current wind speed in m/s (hover to see current wind gust speed)